Eufaula, AL

7:53 AM CDT on June 23, 2017 (GMT -0500)
Weedon

Weather History for KEUF - October, 2011

Change the Weather History Date:

Tuesday, October 18, 2011

  Actual Average (KLSF) Record (KLSF)
Temperature  
Mean Temperature 66 °F -  
Max Temperature 77 °F 75 °F 91 °F (2016)
Min Temperature 55 °F 49 °F 32 °F (2001)
Cooling Degree Days 1    
Growing Degree Days 16 (Base 50)    
Moisture  
Dew Point 62 °F    
Average Humidity 84    
Maximum Humidity 90    
Minimum Humidity 59    
Precipitation  
Precipitation 0.08 in - - ()
Sea Level Pressure  
Sea Level Pressure 29.66 in    
Wind  
Wind Speed 1 mph (SSE)    
Max Wind Speed 6 mph    
Max Gust Speed -    
Visibility 8 miles    
Events Rain    
Averages and records for this station are not official NWS values.
T = Trace of Precipitation, MM = Missing Value Source: NWS Daily Summary

Daily Weather History Graph

Daily Weather History Graph

Search for Another Location

Airport or City:

Trip Planner

Search our weather history database for the weather conditions in past years. The results will help you decide how hot, cold, wet, or windy it might be!

Date:

Astronomy

Oct. 18, 2011 Rise Set
Actual Time 6:45 AM CDT 6:05 PM CDT
Civil Twilight 6:21 AM CDT 6:29 PM CDT
Nautical Twilight 5:52 AM CDT 6:58 PM CDT
Astronomical Twilight 5:24 AM CDT 7:26 PM CDT
Moon 10:57 PM CDT (10/18) 12:23 PM CDT (10/18)
Length of Visible Light 12h 08m
Length of Day
11h 19m
Waning Gibbous, 64% of the Moon is Illuminated
Oct 18
Waning Gibbous
Oct 19
Last Quarter
Oct 26
New
Nov 2
First Quarter
Nov 10
Full

Hourly Weather History & Observations

Time (CDT) Temp. Dew Point Humidity Pressure Visibility Wind Dir Wind Speed Gust Speed Precip Events Conditions
12:58 AM 57.0 °F 54.0 °F 89% 29.83 in 9.0 mi Calm Calm - 0.00 in   Clear
1:58 AM 57.0 °F 54.0 °F 89% 29.82 in 7.0 mi Calm Calm - N/A   Clear
2:58 AM 57.0 °F 53.1 °F 87% 29.80 in 7.0 mi Calm Calm - 0.00 in   Clear
3:58 AM 55.9 °F 53.1 °F 90% 29.79 in 5.0 mi Calm Calm - N/A   Clear
4:58 AM 55.9 °F 52.0 °F 87% 29.79 in 6.0 mi Calm Calm - N/A   Clear
5:58 AM 55.9 °F 52.0 °F 87% 29.80 in 6.0 mi Calm Calm - 0.00 in   Clear
6:58 AM 55.9 °F 52.0 °F 87% 29.79 in 4.0 mi Calm Calm - N/A   Clear
7:58 AM 62.1 °F 55.9 °F 80% 29.78 in 6.0 mi Calm Calm - N/A   Haze
8:58 AM 64.9 °F 57.9 °F 78% 29.78 in 6.0 mi Calm Calm - N/A   Haze
9:58 AM 73.0 °F 63.0 °F 71% 29.77 in 10.0 mi SSE 3.5 mph - N/A   Clear
12:03 PM 73.9 °F 66.9 °F 79% 29.73 in 2.5 mi SE 4.6 mph - 0.05 in Rain Rain
12:19 PM 73.0 °F 68.0 °F 84% 29.72 in 10.0 mi South 5.8 mph - 0.05 in   Partly Cloudy
12:58 PM 75.0 °F 69.1 °F 82% 29.69 in 10.0 mi SW 3.5 mph - 0.06 in   Mostly Cloudy
1:58 PM 77.0 °F 68.0 °F 74% 29.65 in 10.0 mi Calm Calm - 0.00 in Rain Light Rain
2:58 PM 75.9 °F 68.0 °F 76% 29.63 in 10.0 mi SSE 3.5 mph - 0.00 in   Partly Cloudy
3:28 PM 73.9 °F 70.0 °F 87% 29.63 in 5.0 mi Calm Calm - 0.02 in Rain Rain
3:58 PM 73.9 °F 69.1 °F 85% 29.61 in 10.0 mi SE 3.5 mph - 0.02 in   Clear
4:36 PM 75.9 °F 69.1 °F 79% 29.60 in 10.0 mi Calm Calm - 0.00 in   Mostly Cloudy
4:42 PM 64.4 °F 50.0 °F 59% - - North - - N/A   Unknown
4:58 PM 75.9 °F 68.0 °F 76% 29.60 in 10.0 mi Calm Calm - 0.00 in   Overcast
5:58 PM 73.9 °F 68.0 °F 82% 29.59 in 10.0 mi SE 5.8 mph - N/A   Mostly Cloudy
6:03 PM 73.0 °F 68.0 °F 84% 29.60 in 10.0 mi SE 5.8 mph - N/A   Scattered Clouds
6:58 PM 70.0 °F 66.9 °F 90% 29.59 in 10.0 mi Calm Calm - N/A   Mostly Cloudy
7:58 PM 68.0 °F 64.9 °F 90% 29.58 in 7.0 mi Calm Calm - N/A   Scattered Clouds
8:58 PM 66.0 °F 63.0 °F 90% 29.55 in 3.0 mi ESE 3.5 mph - N/A   Clear
9:21 PM 66.0 °F 63.0 °F 90% 29.56 in 10.0 mi Calm Calm - N/A   Mostly Cloudy
9:27 PM 66.0 °F 63.0 °F 90% 29.56 in 10.0 mi Calm Calm - N/A   Scattered Clouds
9:50 PM 64.9 °F 62.1 °F 90% 29.56 in 10.0 mi Calm Calm - 0.00 in   Mostly Cloudy
9:58 PM 66.0 °F 63.0 °F 90% 29.55 in 10.0 mi Calm Calm - 0.00 in   Mostly Cloudy
10:52 PM 66.0 °F 63.0 °F 90% 29.53 in 4.0 mi Calm Calm - N/A   Mostly Cloudy
10:58 PM 66.0 °F 63.0 °F 90% 29.53 in 10.0 mi Calm Calm - N/A   Mostly Cloudy
11:51 PM 64.0 °F 61.0 °F 90% 29.53 in 2.5 mi Calm Calm - 0.00 in Rain Light Rain
11:58 PM 64.0 °F 61.0 °F 90% 29.52 in 4.0 mi Calm Calm - 0.00 in   Partly Cloudy